This is the latest recevied weather packets stored in our database for station/object KF0EZB. If no packets are shown the sender has not sent any weather packets the latest 10 day(s).
| Time | Temp. | Humidity | Pressure | Rain* | Wind** | Luminosity | Snow |
|---|---|---|---|---|---|---|---|
| 1777124516 | 15° C | 95% | 1008.5 hPa | 0 mm | - | 8 W/m² | - |
| 1777124213 | 15° C | 95% | 1007.8 hPa | 0 mm | - | 13 W/m² | - |
| 1777123910 | 15° C | 94% | 1007.2 hPa | 0 mm | - | 20 W/m² | - |
| 1777123607 | 15° C | 94% | 1007.4 hPa | 0 mm | - | 21 W/m² | - |
| 1777123302 | 15° C | 94% | 1007.4 hPa | 0 mm | - | 27 W/m² | - |
| 1777122998 | 15° C | 94% | 1007 hPa | 0 mm | - | 25 W/m² | - |
| 1777122695 | 15° C | 94% | 1007 hPa | 0 mm | - | 18 W/m² | - |
| 1777122390 | 15° C | 94% | 1007 hPa | 0 mm | - | 19 W/m² | - |
| 1777122088 | 15° C | 94% | 1007 hPa | 0 mm | - | 19 W/m² | - |
| 1777121783 | 15° C | 93% | 1006.8 hPa | 0 mm | - | 20 W/m² | - |
| 1777121481 | 14.44° C | 93% | 1006.8 hPa | 0 mm | - | 14 W/m² | - |
| 1777121181 | 14.44° C | 93% | 1006.9 hPa | 0 mm | - | 15 W/m² | - |
| 1777120879 | 14.44° C | 93% | 1006.8 hPa | 0 mm | - | 12 W/m² | - |
| 1777120575 | 14.44° C | 93% | 1006.9 hPa | 0 mm | - | 11 W/m² | - |
| 1777120270 | 14.44° C | 93% | 1006.8 hPa | 0 mm | - | 9 W/m² | - |
| 1777119965 | 14.44° C | 93% | 1006.9 hPa | 0 mm | - | 10 W/m² | - |
| 1777119663 | 14.44° C | 93% | 1006.8 hPa | 0 mm | - | 8 W/m² | - |
| 1777119357 | 14.44° C | 93% | 1006.9 hPa | 0 mm | - | 10 W/m² | - |
| 1777119052 | 13.89° C | 93% | 1006.5 hPa | 0 mm | - | 10 W/m² | - |
| 1777118748 | 13.89° C | 93% | 1006.3 hPa | 0 mm | - | 6 W/m² | - |
| 1777118444 | 13.89° C | 93% | 1006.7 hPa | 0 mm | - | 3 W/m² | - |
| 1777118140 | 13.89° C | 93% | 1006.5 hPa | 0 mm | - | 2 W/m² | - |
| 1777117837 | 13.89° C | 93% | 1006.5 hPa | 0 mm | - | 0 W/m² | - |
| 1777117534 | 13.89° C | 92% | 1006.3 hPa | 0 mm | - | 0 W/m² | - |
| 1777117232 | 13.89° C | 92% | 1006.3 hPa | 0 mm | - | 0 W/m² | - |
* Rain latest hour (hover to see other rain measurements)
** Current wind speed in m/s (hover to see current wind gust speed)